シュヴァスマン-ヴァハマン第1彗星

29P/Schwassmann-Wachmann 1 (2019)

English version
Home page
Updated on October 14, 2018

---------------------------------------------------------------------

・ プロフィール

・ 写真集

・ 軌道要素

Epoch 2019 Mar. 18.0 TT = JDT 2458560.5
T 2019 Mar. 7.75763 TT                                  MPCW
q   5.7668222            (2000.0)            P               Q
n   0.06662629     Peri.   47.77452     +0.99270154     -0.00957049
a   6.0261367      Node   312.39454     -0.05135051     +0.86841770
e   0.0430316      Incl.    9.36833     +0.10911815     +0.49574096
P  14.79
From 24209 observations 1902 Mar. 5-2018 Sept. 20, mean residual 0".6.

・ 星図

・ 光度変化

        m1 = 4.0 + 5 logΔ + 7.5 log r

---------------------------------------------------------------------

軌道要素はM.P.E.C. 2018-S50に掲載されたものです。
星図はステラナビゲータ Ver.8 (アストロアーツ) で作成したものです。
光度グラフはComet for Windowsで作成したものです。

---------------------------------------------------------------------

Copyright(C) Seiichi Yoshida (comet@aerith.net). All rights reserved.